HDT,Max TemperatureF,Mean TemperatureF,Min TemperatureF,Max Dew PointF,MeanDew PointF,Min DewpointF,Max Humidity, Mean Humidity, Min Humidity, Max Sea Level PressureIn, Mean Sea Level PressureIn, Min Sea Level PressureIn, Max VisibilityMiles, Mean VisibilityMiles, Min VisibilityMiles, Max Wind SpeedMPH, Mean Wind SpeedMPH, Max Gust SpeedMPH,PrecipitationIn, CloudCover, Events, WindDirDegrees
2012-10-1,48,44,41,45,41,37,100,84,66,29.68,29.55,29.40,10,8,2,28,17,40,0.00,7,,359
2012-10-2,46,44,42,43,41,37,93,87,73,29.66,29.40,29.25,10,9,4,34,13,44,0.00,8,,57
2012-10-3,46,44,42,41,37,34,87,78,66,29.42,29.35,29.26,10,9,2,39,27,52,0.00,7,,299
2012-10-4,46,44,41,39,38,36,87,78,60,29.91,29.61,29.43,10,8,2,39,25,50,0.00,7,,276
2012-10-5,50,44,39,39,37,32,87,76,46,29.97,29.88,29.66,10,10,5,23,13,24,0.00,6,,224
2012-10-6,44,42,39,43,40,37,93,87,76,29.66,29.39,29.26,8,4,2,38,22,45,0.00,8,,67
2012-10-7,44,43,42,43,42,39,93,91,81,29.69,29.61,29.47,10,6,2,39,32,53,0.00,8,,24
2012-10-8,50,47,44,46,44,43,100,94,87,29.66,29.63,29.60,10,6,2,21,9,29,0.00,8,,40
2012-10-9,48,45,42,45,43,41,100,94,89,29.70,29.63,29.59,10,4,0,12,3,,0.00,8,,358
2012-10-10,46,44,42,45,43,41,100,96,89,29.68,29.45,29.13,10,6,1,18,7,,0.00,8,,28
2012-10-11,48,45,42,45,44,43,100,95,87,29.22,29.09,29.01,10,6,2,21,10,28,0.00,8,,30
2012-10-12,46,44,42,45,42,36,100,91,76,29.65,29.42,29.23,10,6,2,24,17,30,0.00,8,,19
2012-10-13,43,40,37,37,33,28,93,74,55,29.98,29.84,29.65,10,10,4,22,16,30,0.00,8,,31
2012-10-14,42,38,35,34,30,27,87,72,55,30.11,30.06,29.98,10,10,7,18,10,24,0.00,7,,352
2012-10-15,44,40,35,37,34,30,93,79,67,30.23,30.13,30.09,10,10,6,15,6,20,0.00,7,,318
2012-10-16,41,38,35,36,33,28,93,82,61,30.41,30.33,30.24,10,10,10,10,2,,0.00,8,,335
2012-10-17,42,38,33,36,31,25,93,79,49,30.58,30.49,30.41,10,10,4,13,2,18,0.00,8,,46
2012-10-18,44,37,30,34,31,28,93,77,44,30.61,30.59,30.57,10,10,10,8,2,,0.00,6,,204
2012-10-19,44,37,30,39,35,28,93,81,66,30.58,30.50,30.39,10,10,9,23,9,29,0.00,7,,196
2012-10-20,46,42,39,45,41,36,93,86,71,30.40,30.22,30.12,10,8,1,29,17,36,0.00,8,,189
2012-10-21,46,40,35,45,40,34,100,94,81,30.26,30.18,30.12,10,5,0,17,8,24,0.00,7,,77
2012-10-22,48,46,44,45,43,39,93,87,76,30.12,29.63,29.24,10,5,2,44,23,60,0.00,8,,116
2012-10-23,48,46,44,45,44,43,100,91,82,29.73,29.36,29.20,10,7,3,33,17,40,0.00,8,,94
2012-10-24,46,42,37,43,39,34,93,82,66,30.18,30.02,29.75,10,7,4,28,17,36,0.00,7,,66
2012-10-25,44,40,35,37,33,30,100,76,61,30.24,30.22,30.18,10,10,10,18,9,22,0.00,6,,43
2012-10-26,42,40,37,36,34,30,93,81,67,30.23,30.12,30.05,10,10,7,24,13,31,0.00,7,,35
2012-10-27,41,40,39,36,35,34,87,81,75,30.06,30.04,30.03,10,10,10,16,14,23,0.00,7,,27
2012-10-28,,,,,,,,,,,,,,,,,,,,,,
2012-10-29,,,,,,,,,,,,,,,,,,,,,,
2012-10-30,39,38,37,32,30,28,75,70,65,30.34,30.30,30.24,10,10,8,29,22,36,0.00,8,,61
2012-10-31,39,37,35,32,28,25,81,70,60,30.46,30.42,30.35,10,10,8,26,18,37,0.00,8,,40